Location: Vancouver
(49.2500°N, 123.1330°W)
Time: 22:17:35
(UTC-07:00)

Iridium 21 - Visible Passes

Search period start: 01 July 2015 00:00
Search period end: 11 July 2015 00:00
Orbit: 776 x 779 km, 86.4° (Epoch: 01 July)

Date Brightness Start Highest point End Pass type
(mag) Time Alt. Az. Time Alt. Az. Time Alt. Az.
02 Jul 7.7 03:55:14 10° NNE 03:59:32 26° ENE 04:03:54 10° SE visible
03 Jul 8.2 03:22:31 10° NNE 03:25:34 16° ENE 03:28:48 10° ESE visible
04 Jul 6.2 04:28:22 10° N 04:33:32 59° E 04:38:41 10° SSE visible
05 Jul 7.2 03:55:04 10° NNE 03:59:49 35° ENE 04:04:36 10° SE visible
06 Jul 7.9 03:22:03 10° NNE 03:25:57 21° ENE 03:29:58 10° ESE visible
07 Jul 8.3 02:49:41 10° NE 02:51:56 13° ENE 02:54:25 10° E visible
07 Jul 5.7 04:28:26 10° N 04:33:41 81° E 04:38:55 10° S visible
08 Jul 6.5 03:55:01 10° N 04:00:03 48° E 04:05:06 10° SSE visible
09 Jul 7.4 03:21:48 10° NNE 03:26:17 29° ENE 03:30:49 10° SE visible
10 Jul 8.0 02:48:58 10° NNE 02:52:22 18° ENE 02:55:54 10° ESE visible
10 Jul 5.6 04:28:34 10° N 04:33:48 74° W 04:39:00 10° S visible
